Retour au catalogue

FENGYUN 1C DEB

ActifSSO
NORAD 31021·DEBRIS·🇨🇳 China

Lancé May 10, 1999 depuis Taiyuan Satellite Launch Center

Loading…

Prochains Passages (prochaines 24 heures)

TLE

FraisSource: Space-Track

Époque: Sep 14, 2026, 02:07 UTC

1 31021U 99025BDP 26257.08869377  .00004045  00000-0  31620-3 0  9990
2 31021  98.3749  22.9259 0257563  81.9238 281.1105 14.79064912774983

Suivez FENGYUN 1C DEB en temps réel avec AllMySat

Download on the App Store